Skip Page Navigation
NASA JPL Caltech
NASA Logo - Jet Propulsion Laboratory + View the NASA Portal
+ Center for Near-Earth Object Studies
JPL Home Earth Solar System Stars & Galaxies Technology
JPL Solar System Dynamics
BODIES ORBITS EPHEMERIDES TOOLS PHYSICAL DATA DISCOVERY FAQ SITE MAP
JPL Small-Body Database Browser
Search: [ help ]  
14674 INAOE (1999 UD5)
Classification: Main-belt Asteroid          SPK-ID: 2014674
Ephemeris | Orbit Diagram | Orbital Elements | Mission Design | Physical Parameters | Discovery Circumstances ]

[ show orbit diagram ]
Orbital Elements at Epoch 2459200.5 (2020-Dec-17.0) TDB
Reference: JPL 34 (heliocentric ecliptic J2000)
 Element Value Uncertainty (1-sigma)   Units 
e .1086918374957278 2.9129e-08  
a 2.521661377272694 7.8398e-09 au
q 2.247577368634917 7.3723e-08 au
i 3.020694135988603 4.1381e-06 deg
node 67.56803752102631 7.1352e-05 deg
peri 27.35790276746016 7.5806e-05 deg
M 55.81934846422613 2.4769e-05 deg
tp 2458973.716820864740
(2020-May-04.21682086)
0.00010055 TDB
period 1462.610129550628
4.00
6.8209e-06
1.867e-08
d
yr
n .2461353116093939 1.1478e-09 deg/d
Q 2.79574538591047 8.6919e-09 au
  Orbit Determination Parameters
   # obs. used (total)      2050  
   data-arc span      10731 days (29.38 yr)  
   first obs. used      1991-11-05  
   last obs. used      2021-03-23  
   planetary ephem.      DE441  
   SB-pert. ephem.      SB441-N16  
   condition code      0  
   norm. resid. RMS      .48294  
   source      ORB  
   producer      Otto Matic  
   solution date      2021-May-04 01:51:47  

Additional Information
 Earth MOID = 1.2646 au 
 Jupiter MOID = 2.34664 au 
 T_jup = 3.446 
[ show covariance matrix ]

Ephemeris | Orbit Diagram | Orbital Elements | Mission Design | Physical Parameters | Discovery Circumstances ]

Physical Parameter Table
Parameter Symbol Value Units Sigma Reference Notes
absolute magnitude H 14.46   n/a E2021B10  

14674 INAOE           Discovered 1999 Oct. 29 by the Catalina Sky Survey.
The Instituto Nacional de Astrofisica, Optica y Electronica (INAOE) is located in Tonantzitla, Puebla, Mexico, is a prominent Mexican center for research and graduate education in astronomy and astrophysics. It operates several observatories.
NOTE: some special characters may not display properly (any characters within {} are an attempt to place the proper accent above a character)
Reference: 20110218/MPCPages.arcLast Updated: 2011-02-22

Alternate Designations
 1999 UD5 = 1993 FY32 = 1997 ER58 = 1998 MB41 
Ephemeris | Orbit Diagram | Orbital Elements | Mission Design | Physical Parameters | Discovery Circumstances ]
ABOUT SSD CREDITS/AWARDS PRIVACY/COPYRIGHT GLOSSARY LINKS
FirstGov 2021-May-17 02:48 UT
(server date/time)  
NASA Home Page
Site Manager:   Ryan S. Park
Webmaster  Alan B. Chamberlin